• In France
  • List of Countries
  • For 7 days
  • Water Temperature
  • Satellite Maps
  • Weather Map
  • Weather Widgets
  • user-avatar
    Login

    Hourly Weather Madingou

    Today, 20 August, Monday

    Time Temperature Precipitation Wind Pressure Humidity
    00:00 +26°C° 0 mm 3 mps 748 mmHg 72%
    01:00 +25°C° 0 mm 3 mps 748 mmHg 76%
    02:00 +25°C° 0 mm 3 mps 748 mmHg 76%
    03:00 +25°C° 0 mm 2 mps 748 mmHg 77%
    04:00 +25°C° 0 mm 2 mps 748 mmHg 78%
    05:00 +25°C° 0 mm 2 mps 748 mmHg 77%
    06:00 +25°C° 0 mm 2 mps 748 mmHg 77%
    07:00 +25°C° 0 mm 2 mps 748 mmHg 76%
    08:00 +26°C° 0 mm 2 mps 748 mmHg 70%
    09:00 +27°C° 0 mm 2 mps 749 mmHg 65%
    10:00 +28°C° 0 mm 2 mps 749 mmHg 59%
    11:00 +31°C° 0 mm 2 mps 748 mmHg 52%
    12:00 +34°C° 0 mm 2 mps 747 mmHg 44%
    13:00 +36°C° 0 mm 3 mps 746 mmHg 37%
    14:00 +36°C° 0 mm 3 mps 745 mmHg 36%
    15:00 +37°C° 0 mm 3 mps 745 mmHg 35%
    16:00 +37°C° 0 mm 3 mps 744 mmHg 34%
    17:00 +36°C° 0 mm 3 mps 744 mmHg 37%
    18:00 +35°C° 0 mm 3 mps 745 mmHg 39%
    19:00 +34°C° 0 mm 3 mps 745 mmHg 42%
    20:00 +31°C° 0 mm 3 mps 746 mmHg 46%
    21:00 +30°C° 0 mm 3 mps 746 mmHg 50%
    22:00 +29°C° 0 mm 3 mps 747 mmHg 53%
    23:00 +28°C° 0 mm 3 mps 747 mmHg 56%

    Tomorrow, 21 August, Tuesday

    Time Temperature Precipitation Wind Pressure Humidity
    00:00 +28°C° 0 mm 3 mps 747 mmHg 59%
    01:00 +27°C° 0 mm 3 mps 747 mmHg 61%
    02:00 +26°C° 0 mm 2 mps 747 mmHg 64%
    03:00 +26°C° 0 mm 2 mps 747 mmHg 67%
    04:00 +25°C° 0 mm 2 mps 747 mmHg 70%
    05:00 +25°C° 0 mm 2 mps 747 mmHg 72%
    06:00 +25°C° 0 mm 2 mps 747 mmHg 73%
    07:00 +25°C° 0 mm 2 mps 747 mmHg 75%
    08:00 +27°C° 0 mm 2 mps 748 mmHg 66%
    09:00 +29°C° 0 mm 2 mps 748 mmHg 58%
    10:00 +31°C° 0 mm 3 mps 748 mmHg 49%
    11:00 +33°C° 0 mm 3 mps 747 mmHg 44%
    12:00 +35°C° 0 mm 3 mps 747 mmHg 39%
    13:00 +37°C° 0 mm 3 mps 746 mmHg 34%
    14:00 +37°C° 0 mm 3 mps 745 mmHg 34%
    15:00 +37°C° 0 mm 3 mps 744 mmHg 34%
    16:00 +37°C° 0 mm 4 mps 744 mmHg 34%
    17:00 +35°C° 0 mm 3 mps 744 mmHg 38%
    18:00 +34°C° 0 mm 3 mps 745 mmHg 42%
    19:00 +33°C° 0 mm 3 mps 745 mmHg 46%
    20:00 +31°C° 0 mm 3 mps 746 mmHg 51%
    21:00 +29°C° 0 mm 3 mps 746 mmHg 55%
    22:00 +28°C° 0 mm 3 mps 747 mmHg 60%
    23:00 +28°C° 0 mm 3 mps 747 mmHg 63%

    Day after tomorrow, 22 August, Wednesday

    Time Temperature Precipitation Wind Pressure Humidity
    00:00 +27°C° 0 mm 3 mps 747 mmHg 67%
    01:00 +26°C° 0 mm 3 mps 747 mmHg 70%
    02:00 +25°C° 0 mm 3 mps 746 mmHg 73%
    03:00 +25°C° 0 mm 3 mps 746 mmHg 76%
    04:00 +24°C° 0 mm 3 mps 746 mmHg 78%
    05:00 +24°C° 0 mm 3 mps 746 mmHg 78%
    06:00 +24°C° 0 mm 3 mps 747 mmHg 77%
    07:00 +24°C° 0 mm 3 mps 747 mmHg 77%
    08:00 +25°C° 0 mm 3 mps 747 mmHg 72%
    09:00 +27°C° 0 mm 3 mps 748 mmHg 66%
    10:00 +28°C° 0 mm 3 mps 748 mmHg 61%
    11:00 +30°C° 0 mm 3 mps 748 mmHg 53%
    12:00 +33°C° 0 mm 3 mps 747 mmHg 45%
    13:00 +35°C° 0 mm 3 mps 746 mmHg 37%
    14:00 +35°C° 0 mm 3 mps 746 mmHg 36%
    15:00 +36°C° 0 mm 4 mps 745 mmHg 35%
    16:00 +36°C° 0 mm 4 mps 744 mmHg 34%
    17:00 +34°C° 0 mm 4 mps 745 mmHg 38%
    18:00 +33°C° 0 mm 4 mps 745 mmHg 42%
    19:00 +30°C° 0 mm 4 mps 746 mmHg 46%
    20:00 +29°C° 0 mm 3 mps 747 mmHg 51%
    21:00 +28°C° 0 mm 3 mps 747 mmHg 56%
    22:00 +27°C° 0 mm 3 mps 748 mmHg 61%
    23:00 +26°C° 0 mm 3 mps 748 mmHg 65%

    23 August, Thursday

    Time Temperature Precipitation Wind Pressure Humidity
    00:00 +25°C° 0 mm 3 mps 747 mmHg 69%
    01:00 +25°C° 0 mm 3 mps 747 mmHg 73%
    02:00 +24°C° 0 mm 2 mps 747 mmHg 75%
    03:00 +24°C° 0 mm 2 mps 746 mmHg 77%
    04:00 +23°C° 0 mm 2 mps 746 mmHg 79%
    05:00 +23°C° 0 mm 2 mps 747 mmHg 79%
    06:00 +23°C° 0 mm 2 mps 747 mmHg 79%
    07:00 +23°C° 0 mm 2 mps 747 mmHg 79%
    08:00 +25°C° 0 mm 2 mps 747 mmHg 70%
    09:00 +27°C° 0 mm 2 mps 748 mmHg 61%
    10:00 +29°C° 0 mm 2 mps 748 mmHg 52%
    11:00 +31°C° 0 mm 2 mps 747 mmHg 45%
    12:00 +32°C° 0 mm 2 mps 746 mmHg 37%
    13:00 +35°C° 0 mm 2 mps 745 mmHg 30%
    14:00 +36°C° 0 mm 2 mps 745 mmHg 29%
    15:00 +36°C° 0 mm 3 mps 744 mmHg 27%
    16:00 +36°C° 0 mm 3 mps 743 mmHg 26%
    17:00 +35°C° 0 mm 3 mps 744 mmHg 30%
    18:00 +33°C° 0 mm 3 mps 744 mmHg 33%
    19:00 +31°C° 0 mm 2 mps 745 mmHg 37%
    20:00 +30°C° 0 mm 3 mps 746 mmHg 43%
    21:00 +29°C° 0 mm 3 mps 746 mmHg 48%
    22:00 +28°C° 0 mm 3 mps 747 mmHg 54%
    23:00 +27°C° 0 mm 2 mps 746 mmHg 57%

    24 August, Friday

    Time Temperature Precipitation Wind Pressure Humidity
    00:00 +26°C° 0 mm 2 mps 746 mmHg 60%
    01:00 +25°C° 0 mm 2 mps 746 mmHg 64%
    02:00 +25°C° 0 mm 2 mps 746 mmHg 66%
    03:00 +24°C° 0 mm 2 mps 746 mmHg 68%
    04:00 +24°C° 0 mm 2 mps 745 mmHg 70%
    05:00 +23°C° 0 mm 1 mps 746 mmHg 70%
    06:00 +23°C° 0 mm 1 mps 746 mmHg 71%
    07:00 +23°C° 0 mm 1 mps 747 mmHg 72%
    08:00 +25°C° 0 mm 1 mps 747 mmHg 62%
    09:00 +28°C° 0 mm 1 mps 747 mmHg 52%
    10:00 +30°C° 0 mm 1 mps 747 mmHg 42%
    11:00 +32°C° 0 mm 2 mps 746 mmHg 37%
    12:00 +35°C° 0 mm 2 mps 745 mmHg 32%
    13:00 +37°C° 0 mm 2 mps 744 mmHg 27%
    14:00 +37°C° 0 mm 2 mps 744 mmHg 26%
    15:00 +38°C° 0 mm 2 mps 743 mmHg 24%
    16:00 +38°C° 0 mm 2 mps 743 mmHg 23%
    17:00 +37°C° 0 mm 2 mps 743 mmHg 25%
    18:00 +36°C° 0 mm 2 mps 744 mmHg 27%
    19:00 +34°C° 0 mm 2 mps 745 mmHg 30%
    20:00 +32°C° 0 mm 2 mps 745 mmHg 35%
    21:00 +31°C° 0 mm 3 mps 746 mmHg 40%
    22:00 +30°C° 0 mm 3 mps 746 mmHg 46%
    23:00 +29°C° 0 mm 3 mps 746 mmHg 50%

    25 August, Saturday

    Time Temperature Precipitation Wind Pressure Humidity
    00:00 +28°C° 0 mm 3 mps 746 mmHg 54%
    01:00 +27°C° 0 mm 3 mps 746 mmHg 58%
    02:00 +26°C° 0 mm 2 mps 746 mmHg 61%
    03:00 +25°C° 0 mm 2 mps 746 mmHg 64%
    04:00 +25°C° 0 mm 2 mps 746 mmHg 67%
    05:00 +24°C° 0 mm 2 mps 746 mmHg 69%
    06:00 +24°C° 0 mm 2 mps 747 mmHg 70%
    07:00 +24°C° 0 mm 2 mps 747 mmHg 72%
    08:00 +25°C° 0 mm 2 mps 748 mmHg 66%
    09:00 +27°C° 0 mm 2 mps 748 mmHg 60%
    10:00 +28°C° 0 mm 2 mps 748 mmHg 55%
    11:00 +30°C° 0 mm 2 mps 747 mmHg 50%
    12:00 +32°C° 0 mm 2 mps 747 mmHg 45%
    13:00 +34°C° 0 mm 2 mps 746 mmHg 40%
    14:00 +35°C° 0 mm 2 mps 745 mmHg 39%
    15:00 +35°C° 0 mm 2 mps 745 mmHg 39%
    16:00 +35°C° 0 mm 2 mps 744 mmHg 38%
    17:00 +34°C° 0 mm 2 mps 745 mmHg 40%
    18:00 +33°C° 0 mm 3 mps 745 mmHg 43%
    19:00 +31°C° 0 mm 3 mps 745 mmHg 46%
    20:00 +30°C° 0 mm 3 mps 746 mmHg 50%
    21:00 +29°C° 0 mm 3 mps 747 mmHg 53%
    22:00 +28°C° 0 mm 3 mps 747 mmHg 57%
    23:00 +27°C° 0 mm 3 mps 747 mmHg 61%
    Show more